20-03-2022, 00:00:09,     58,    0.0,    5.4,   0.00,   0.00, 1026.6,   53.7, -999.0
20-03-2022, 00:00:19,     58,    0.0,    5.4,   0.00,   0.00, 1026.6,   53.6, -999.0
20-03-2022, 00:00:29,     58,    0.0,    5.4,   0.00,   0.00, 1026.6,   53.6, -999.0
20-03-2022, 00:00:39,     58,    0.0,    5.3,   0.00,   0.00, 1026.6,   53.7, -999.0
20-03-2022, 00:00:48,     58,    0.0,    5.4,   0.00,   0.00, 1026.6,   53.7, -999.0
20-03-2022, 00:00:59,     58,    0.0,    5.4,   0.00,   0.00, 1026.6,   54.0, -999.0
20-03-2022, 00:01:08,     59,    0.0,    5.4,   0.00,   0.00, 1026.6,   53.9, -999.0
20-03-2022, 00:01:18,     58,    0.0,    5.4,   0.00,   0.00, 1026.6,   53.9, -999.0
20-03-2022, 00:01:29,     58,    0.0,    5.5,   0.00,   0.00, 1026.6,   53.9, -999.0
20-03-2022, 00:01:38,     58,    0.0,    5.5,   0.00,   0.00, 1026.6,   53.8, -999.0
20-03-2022, 00:01:48,     59,    0.0,    5.5,   0.00,   0.00, 1026.6,   53.9, -999.0
20-03-2022, 00:01:58,     58,    0.0,    5.5,   0.00,   0.00, 1026.6,   53.7, -999.0
20-03-2022, 00:02:08,     58,    0.0,    5.3,   0.00,   0.00, 1026.6,   53.7, -999.0
20-03-2022, 00:02:18,     58,    0.0,    5.5,   0.00,   0.00, 1026.6,   53.6, -999.0
20-03-2022, 00:02:28,     58,    0.0,    5.4,   0.00,   0.00, 1026.6,   53.6, -999.0
20-03-2022, 00:02:38,     58,    0.0,    5.4,   0.00,   0.00, 1026.6,   53.7, -999.0
20-03-2022, 00:02:48,     58,    0.0,    5.4,   0.00,   0.00, 1026.6,   53.7, -999.0
20-03-2022, 00:02:58,     58,    0.0,    5.4,   0.00,   0.00, 1026.5,   53.8, -999.0
20-03-2022, 00:03:08,     58,    0.0,    5.4,   0.00,   0.00, 1026.6,   53.8, -999.0
20-03-2022, 00:03:18,     58,    0.0,    5.3,   0.00,   0.00, 1026.6,   53.7, -999.0
20-03-2022, 00:03:28,     55,    0.0,    5.3,   0.00,   0.00, 1026.6,   53.8, -999.0
20-03-2022, 00:03:38,     58,    0.0,    5.2,   0.00,   0.00, 1026.6,   54.0, -999.0
20-03-2022, 00:03:48,     58,    0.0,    5.3,   0.00,   0.00, 1026.6,   54.0, -999.0
20-03-2022, 00:03:58,    110,    0.0,    5.3,   0.00,   0.00, 1026.6,   53.9, -999.0
20-03-2022, 00:04:08,    137,    0.2,    5.3,   0.00,   0.00, 1026.6,   54.1, -999.0
20-03-2022, 00:04:17,    138,    0.0,    5.2,   0.00,   0.00, 1026.6,   54.0, -999.0
20-03-2022, 00:04:27,    138,    0.0,    5.1,   0.00,   0.00, 1026.6,   54.1, -999.0
20-03-2022, 00:04:38,    134,    0.0,    5.2,   0.00,   0.00, 1026.5,   53.9, -999.0
20-03-2022, 00:04:47,    134,    0.0,    5.2,   0.00,   0.00, 1026.5,   53.8, -999.0
20-03-2022, 00:04:57,     71,    0.0,    5.2,   0.00,   0.00, 1026.5,   53.8, -999.0
20-03-2022, 00:05:07,     71,    0.0,    5.2,   0.00,   0.00, 1026.5,   53.9, -999.0
20-03-2022, 00:05:17,     71,    0.0,    5.3,   0.00,   0.00, 1026.5,   53.8, -999.0
20-03-2022, 00:05:27,     71,    0.0,    5.3,   0.00,   0.00, 1026.5,   53.8, -999.0
20-03-2022, 00:05:37,     71,    0.0,    5.3,   0.00,   0.00, 1026.5,   53.8, -999.0
20-03-2022, 00:05:47,     71,    0.0,    5.2,   0.00,   0.00, 1026.5,   53.8, -999.0
20-03-2022, 00:05:57,     87,    0.0,    5.2,   0.00,   0.00, 1026.5,   53.7, -999.0
20-03-2022, 00:06:07,     87,    0.0,    5.3,   0.00,   0.00, 1026.5,   53.9, -999.0
20-03-2022, 00:06:17,     87,    0.0,    5.2,   0.00,   0.00, 1026.5,   54.0, -999.0
20-03-2022, 00:06:27,     87,    0.0,    5.3,   0.00,   0.00, 1026.5,   54.0, -999.0
20-03-2022, 00:06:37,     59,    0.0,    5.2,   0.00,   0.00, 1026.5,   54.0, -999.0
20-03-2022, 00:06:47,     59,    0.0,    5.3,   0.00,   0.00, 1026.5,   54.0, -999.0
20-03-2022, 00:06:56,     60,    0.0,    5.3,   0.00,   0.00, 1026.5,   54.0, -999.0
20-03-2022, 00:07:07,     59,    0.0,    5.3,   0.00,   0.00, 1026.5,   54.1, -999.0
20-03-2022, 00:07:17,     45,    1.1,    5.3,   0.00,   0.00, 1026.6,   54.4, -999.0
20-03-2022, 00:07:26,     49,    0.8,    5.4,   0.00,   0.00, 1026.6,   54.4, -999.0
20-03-2022, 00:07:37,    117,    0.2,    5.3,   0.00,   0.00, 1026.6,   54.3, -999.0
20-03-2022, 00:07:47,     74,    0.3,    5.4,   0.00,   0.00, 1026.6,   54.1, -999.0
20-03-2022, 00:07:56,     74,    0.2,    5.5,   0.00,   0.00, 1026.5,   54.5, -999.0
20-03-2022, 00:08:06,     74,    0.0,    5.4,   0.00,   0.00, 1026.5,   54.2, -999.0
20-03-2022, 00:08:16,     74,    0.0,    5.3,   0.00,   0.00, 1026.5,   53.9, -999.0
20-03-2022, 00:08:26,     74,    0.0,    5.3,   0.00,   0.00, 1026.5,   54.1, -999.0
20-03-2022, 00:08:36,     74,    0.0,    5.4,   0.00,   0.00, 1026.4,   54.2, -999.0
20-03-2022, 00:08:46,     74,    0.0,    5.4,   0.00,   0.00, 1026.4,   54.3, -999.0
20-03-2022, 00:08:56,     74,    0.0,    5.4,   0.00,   0.00, 1026.4,   54.3, -999.0
20-03-2022, 00:09:06,     74,    0.0,    5.5,   0.00,   0.00, 1026.5,   54.2, -999.0
20-03-2022, 00:09:16,     74,    0.0,    5.4,   0.00,   0.00, 1026.5,   54.1, -999.0
20-03-2022, 00:09:26,     74,    0.0,    5.4,   0.00,   0.00, 1026.4,   54.1, -999.0
20-03-2022, 00:09:36,     74,    0.0,    5.4,   0.00,   0.00, 1026.4,   54.1, -999.0
20-03-2022, 00:09:46,     74,    0.0,    5.3,   0.00,   0.00, 1026.4,   54.0, -999.0
20-03-2022, 00:09:56,     74,    0.0,    5.3,   0.00,   0.00, 1026.4,   54.0, -999.0
20-03-2022, 00:10:06,     76,    0.0,    5.3,   0.00,   0.00, 1026.4,   54.0, -999.0
20-03-2022, 00:10:16,     74,    0.0,    5.2,   0.00,   0.00, 1026.4,   54.2, -999.0
20-03-2022, 00:10:26,     74,    0.0,    5.2,   0.00,   0.00, 1026.4,   54.2, -999.0
20-03-2022, 00:10:35,     74,    0.0,    5.2,   0.00,   0.00, 1026.4,   54.3, -999.0
20-03-2022, 00:10:46,     75,    0.0,    5.1,   0.00,   0.00, 1026.4,   54.5, -999.0
20-03-2022, 00:10:56,     75,    0.0,    5.1,   0.00,   0.00, 1026.4,   54.5, -999.0
20-03-2022, 00:11:05,     74,    0.0,    5.0,   0.00,   0.00, 1026.4,   54.6, -999.0
20-03-2022, 00:11:15,     75,    0.0,    5.0,   0.00,   0.00, 1026.4,   54.5, -999.0
20-03-2022, 00:11:25,     75,    0.0,    5.0,   0.00,   0.00, 1026.4,   54.7, -999.0
20-03-2022, 00:11:35,     75,    0.0,    4.9,   0.00,   0.00, 1026.4,   54.6, -999.0
20-03-2022, 00:11:45,     74,    0.0,    5.0,   0.00,   0.00, 1026.4,   54.8, -999.0
20-03-2022, 00:11:55,     74,    0.0,    5.0,   0.00,   0.00, 1026.4,   54.8, -999.0
20-03-2022, 00:12:05,     75,    0.0,    5.1,   0.00,   0.00, 1026.4,   55.0, -999.0
20-03-2022, 00:12:15,     75,    0.0,    5.0,   0.00,   0.00, 1026.4,   54.9, -999.0
20-03-2022, 00:12:25,     75,    0.0,    4.9,   0.00,   0.00, 1026.4,   55.1, -999.0
20-03-2022, 00:12:35,     74,    0.0,    5.0,   0.00,   0.00, 1026.4,   55.0, -999.0
20-03-2022, 00:12:45,     75,    0.0,    5.0,   0.00,   0.00, 1026.4,   55.1, -999.0
20-03-2022, 00:12:55,     75,    0.0,    4.9,   0.00,   0.00, 1026.4,   55.1, -999.0
20-03-2022, 00:13:05,     76,    0.0,    4.9,   0.00,   0.00, 1026.4,   55.1, -999.0
20-03-2022, 00:13:15,     75,    0.0,    5.0,   0.00,   0.00, 1026.4,   55.0, -999.0
20-03-2022, 00:13:25,     76,    0.0,    5.0,   0.00,   0.00, 1026.4,   55.1, -999.0
20-03-2022, 00:13:35,     75,    0.0,    5.0,   0.00,   0.00, 1026.4,   55.0, -999.0
20-03-2022, 00:13:44,     76,    0.0,    5.0,   0.00,   0.00, 1026.4,   55.1, -999.0
20-03-2022, 00:13:55,     75,    0.0,    5.1,   0.00,   0.00, 1026.4,   55.1, -999.0
20-03-2022, 00:14:05,     75,    0.0,    5.0,   0.00,   0.00, 1026.4,   55.0, -999.0
20-03-2022, 00:14:14,     75,    0.0,    5.1,   0.00,   0.00, 1026.4,   55.1, -999.0
20-03-2022, 00:14:25,     75,    0.0,    5.1,   0.00,   0.00, 1026.4,   55.0, -999.0
20-03-2022, 00:14:34,     75,    0.0,    5.1,   0.00,   0.00, 1026.4,   54.9, -999.0
20-03-2022, 00:14:44,     93,    0.0,    5.1,   0.00,   0.00, 1026.4,   55.0, -999.0
20-03-2022, 00:14:54,     93,    0.0,    5.0,   0.00,   0.00, 1026.4,   55.0, -999.0
20-03-2022, 00:15:04,     93,    0.0,    5.1,   0.00,   0.00, 1026.4,   54.9, -999.0
20-03-2022, 00:15:14,     93,    0.0,    5.1,   0.00,   0.00, 1026.4,   54.9, -999.0
20-03-2022, 00:15:24,     93,    0.0,    5.1,   0.00,   0.00, 1026.4,   55.0, -999.0
20-03-2022, 00:15:34,     92,    0.0,    5.1,   0.00,   0.00, 1026.4,   54.9, -999.0
20-03-2022, 00:15:44,     92,    0.0,    5.1,   0.00,   0.00, 1026.4,   55.0, -999.0
20-03-2022, 00:15:54,     92,    0.0,    5.1,   0.00,   0.00, 1026.4,   55.0, -999.0
20-03-2022, 00:16:04,     92,    0.0,    5.1,   0.00,   0.00, 1026.4,   55.0, -999.0
20-03-2022, 00:16:14,     93,    0.0,    5.0,   0.00,   0.00, 1026.4,   55.1, -999.0
20-03-2022, 00:16:24,     92,    0.0,    5.0,   0.00,   0.00, 1026.4,   55.2, -999.0
20-03-2022, 00:16:34,     92,    0.0,    5.0,   0.00,   0.00, 1026.4,   55.3, -999.0
20-03-2022, 00:16:44,     92,    0.0,    5.1,   0.00,   0.00, 1026.3,   55.4, -999.0
20-03-2022, 00:16:54,     92,    0.0,    5.0,   0.00,   0.00, 1026.4,   55.4, -999.0
20-03-2022, 00:17:04,     92,    0.0,    5.0,   0.00,   0.00, 1026.4,   55.3, -999.0
20-03-2022, 00:17:14,     92,    0.0,    5.0,   0.00,   0.00, 1026.4,   55.4, -999.0
20-03-2022, 00:17:23,     92,    0.0,    4.9,   0.00,   0.00, 1026.3,   55.4, -999.0
20-03-2022, 00:17:34,     92,    0.0,    5.0,   0.00,   0.00, 1026.4,   55.4, -999.0
20-03-2022, 00:17:43,     93,    0.0,    4.9,   0.00,   0.00, 1026.4,   55.5, -999.0
20-03-2022, 00:17:53,     93,    0.0,    4.9,   0.00,   0.00, 1026.4,   55.5, -999.0
20-03-2022, 00:18:04,     91,    0.0,    4.9,   0.00,   0.00, 1026.4,   55.6, -999.0
20-03-2022, 00:18:13,     90,    0.0,    4.9,   0.00,   0.00, 1026.4,   55.7, -999.0
20-03-2022, 00:18:23,     90,    0.0,    5.0,   0.00,   0.00, 1026.4,   55.8, -999.0
20-03-2022, 00:18:33,     90,    0.0,    5.0,   0.00,   0.00, 1026.4,   55.7, -999.0
20-03-2022, 00:18:43,     90,    0.0,    5.0,   0.00,   0.00, 1026.4,   55.7, -999.0
20-03-2022, 00:18:53,     91,    0.0,    5.0,   0.00,   0.00, 1026.3,   55.7, -999.0
20-03-2022, 00:19:03,     90,    0.0,    5.0,   0.00,   0.00, 1026.4,   55.7, -999.0
20-03-2022, 00:19:13,     91,    0.0,    5.0,   0.00,   0.00, 1026.4,   55.6, -999.0
20-03-2022, 00:19:23,     90,    0.0,    5.0,   0.00,   0.00, 1026.4,   55.7, -999.0
20-03-2022, 00:19:33,     90,    0.0,    4.9,   0.00,   0.00, 1026.3,   55.7, -999.0
20-03-2022, 00:19:43,     89,    0.0,    4.9,   0.00,   0.00, 1026.4,   55.6, -999.0
20-03-2022, 00:19:53,     77,    0.0,    4.9,   0.00,   0.00, 1026.3,   55.7, -999.0
20-03-2022, 00:20:03,     77,    0.1,    5.0,   0.00,   0.00, 1026.4,   55.9, -999.0
20-03-2022, 00:20:13,     77,    0.0,    5.0,   0.00,   0.00, 1026.3,   55.7, -999.0
20-03-2022, 00:20:22,     77,    0.0,    5.0,   0.00,   0.00, 1026.3,   55.7, -999.0
20-03-2022, 00:20:33,     77,    0.0,    4.9,   0.00,   0.00, 1026.3,   55.8, -999.0
20-03-2022, 00:20:43,     77,    0.0,    4.9,   0.00,   0.00, 1026.3,   55.8, -999.0
20-03-2022, 00:20:52,     75,    0.8,    5.0,   0.00,   0.00, 1026.4,   56.1, -999.0
20-03-2022, 00:21:02,     78,    0.3,    5.0,   0.00,   0.00, 1026.4,   56.0, -999.0
20-03-2022, 00:21:13,     40,    0.3,    4.9,   0.00,   0.00, 1026.4,   55.9, -999.0
20-03-2022, 00:21:22,     41,    0.3,    5.0,   0.00,   0.00, 1026.4,   55.9, -999.0
20-03-2022, 00:21:32,     41,    0.0,    5.0,   0.00,   0.00, 1026.3,   55.8, -999.0
20-03-2022, 00:21:42,     74,    0.7,    5.0,   0.00,   0.00, 1026.4,   56.1, -999.0
20-03-2022, 00:21:52,     80,    0.5,    5.1,   0.00,   0.00, 1026.4,   56.1, -999.0
20-03-2022, 00:22:02,     80,    0.1,    5.0,   0.00,   0.00, 1026.4,   55.9, -999.0
20-03-2022, 00:22:12,     80,    0.8,    5.1,   0.00,   0.00, 1026.5,   55.9, -999.0
20-03-2022, 00:22:22,     80,    0.0,    5.0,   0.00,   0.00, 1026.3,   55.6, -999.0
20-03-2022, 00:22:32,     80,    0.0,    5.0,   0.00,   0.00, 1026.3,   55.7, -999.0
20-03-2022, 00:22:42,     69,    0.4,    5.1,   0.00,   0.00, 1026.5,   55.9, -999.0
20-03-2022, 00:22:52,     70,    0.3,    5.2,   0.00,   0.00, 1026.5,   56.0, -999.0
20-03-2022, 00:23:02,     70,    0.2,    5.1,   0.00,   0.00, 1026.4,   55.8, -999.0
20-03-2022, 00:23:12,     69,    0.1,    5.0,   0.00,   0.00, 1026.4,   55.6, -999.0
20-03-2022, 00:23:22,     78,    0.0,    5.1,   0.00,   0.00, 1026.3,   55.5, -999.0
20-03-2022, 00:23:31,     79,    0.0,    5.1,   0.00,   0.00, 1026.4,   55.5, -999.0
20-03-2022, 00:23:42,     79,    0.0,    5.0,   0.00,   0.00, 1026.3,   55.4, -999.0
20-03-2022, 00:23:52,     79,    0.0,    5.0,   0.00,   0.00, 1026.3,   55.5, -999.0
20-03-2022, 00:24:01,     79,    0.0,    5.1,   0.00,   0.00, 1026.3,   55.5, -999.0
20-03-2022, 00:24:12,     66,    0.3,    5.1,   0.00,   0.00, 1026.4,   55.8, -999.0
20-03-2022, 00:24:22,     64,    0.2,    5.2,   0.00,   0.00, 1026.4,   55.8, -999.0
20-03-2022, 00:24:31,     65,    0.0,    5.1,   0.00,   0.00, 1026.3,   55.5, -999.0
20-03-2022, 00:24:41,     65,    0.0,    5.1,   0.00,   0.00, 1026.3,   55.5, -999.0
20-03-2022, 00:24:51,     65,    0.0,    5.1,   0.00,   0.00, 1026.3,   55.6, -999.0
20-03-2022, 00:25:01,     64,    0.0,    5.1,   0.00,   0.00, 1026.3,   55.5, -999.0
20-03-2022, 00:25:11,     65,    0.0,    5.1,   0.00,   0.00, 1026.3,   55.4, -999.0
20-03-2022, 00:25:21,     65,    0.0,    5.1,   0.00,   0.00, 1026.3,   55.4, -999.0
20-03-2022, 00:25:31,     65,    0.0,    5.1,   0.00,   0.00, 1026.3,   55.4, -999.0
20-03-2022, 00:25:41,     65,    0.0,    4.9,   0.00,   0.00, 1026.3,   55.4, -999.0
20-03-2022, 00:25:51,     65,    0.0,    5.1,   0.00,   0.00, 1026.3,   55.4, -999.0
20-03-2022, 00:26:01,     65,    0.0,    5.0,   0.00,   0.00, 1026.3,   55.4, -999.0
20-03-2022, 00:26:11,     65,    0.0,    5.0,   0.00,   0.00, 1026.3,   55.6, -999.0
20-03-2022, 00:26:21,     65,    0.0,    5.0,   0.00,   0.00, 1026.3,   55.6, -999.0
20-03-2022, 00:26:31,     66,    0.0,    5.0,   0.00,   0.00, 1026.3,   55.7, -999.0
20-03-2022, 00:26:41,     66,    0.0,    5.0,   0.00,   0.00, 1026.3,   55.7, -999.0
20-03-2022, 00:26:51,     65,    0.0,    5.0,   0.00,   0.00, 1026.3,   55.7, -999.0
20-03-2022, 00:27:01,     65,    0.0,    5.0,   0.00,   0.00, 1026.3,   55.8, -999.0
20-03-2022, 00:27:10,     65,    0.0,    4.9,   0.00,   0.00, 1026.3,   55.8, -999.0
20-03-2022, 00:27:21,     65,    0.0,    4.9,   0.00,   0.00, 1026.3,   55.9, -999.0
20-03-2022, 00:27:31,     65,    0.0,    5.0,   0.00,   0.00, 1026.2,   55.9, -999.0
20-03-2022, 00:27:40,     65,    0.0,    4.9,   0.00,   0.00, 1026.3,   55.9, -999.0
20-03-2022, 00:27:50,     65,    0.0,    4.9,   0.00,   0.00, 1026.3,   56.1, -999.0
20-03-2022, 00:28:00,     65,    0.0,    4.9,   0.00,   0.00, 1026.3,   56.1, -999.0
20-03-2022, 00:28:10,     54,    0.2,    4.8,   0.00,   0.00, 1026.3,   56.4, -999.0
20-03-2022, 00:28:20,     54,    0.4,    4.8,   0.00,   0.00, 1026.3,   56.6, -999.0
20-03-2022, 00:28:30,     54,    0.0,    4.8,   0.00,   0.00, 1026.2,   56.5, -999.0
20-03-2022, 00:28:40,     54,    0.0,    4.9,   0.00,   0.00, 1026.3,   56.5, -999.0
20-03-2022, 00:28:50,     54,    0.0,    4.9,   0.00,   0.00, 1026.3,   56.4, -999.0
20-03-2022, 00:29:00,     54,    0.0,    4.8,   0.00,   0.00, 1026.3,   56.5, -999.0
20-03-2022, 00:29:10,     54,    0.0,    4.9,   0.00,   0.00, 1026.3,   56.5, -999.0
20-03-2022, 00:29:20,     54,    0.0,    4.9,   0.00,   0.00, 1026.3,   56.6, -999.0
20-03-2022, 00:29:30,     54,    0.0,    4.9,   0.00,   0.00, 1026.3,   56.5, -999.0
20-03-2022, 00:29:40,     54,    0.0,    4.9,   0.00,   0.00, 1026.3,   56.6, -999.0
20-03-2022, 00:29:50,     37,    0.0,    4.9,   0.00,   0.00, 1026.3,   56.6, -999.0
20-03-2022, 00:30:00,     99,    0.5,    5.0,   0.00,   0.00, 1026.5,   57.0, -999.0
20-03-2022, 00:30:10,     99,    0.0,    5.0,   0.00,   0.00, 1026.3,   56.6, -999.0
20-03-2022, 00:30:20,     99,    0.0,    5.1,   0.00,   0.00, 1026.3,   56.6, -999.0
20-03-2022, 00:30:30,     99,    0.0,    5.0,   0.00,   0.00, 1026.3,   56.6, -999.0
20-03-2022, 00:30:39,     93,    0.0,    5.1,   0.00,   0.00, 1026.3,   56.4, -999.0
20-03-2022, 00:30:49,     89,    0.0,    5.1,   0.00,   0.00, 1026.3,   56.4, -999.0
20-03-2022, 00:31:00,     89,    0.0,    5.1,   0.00,   0.00, 1026.3,   56.3, -999.0
20-03-2022, 00:31:09,     89,    0.0,    5.0,   0.00,   0.00, 1026.3,   56.3, -999.0
20-03-2022, 00:31:19,     89,    0.0,    5.1,   0.00,   0.00, 1026.3,   56.3, -999.0
20-03-2022, 00:31:29,     89,    0.0,    5.1,   0.00,   0.00, 1026.3,   56.2, -999.0
20-03-2022, 00:31:39,     89,    0.0,    5.1,   0.00,   0.00, 1026.3,   56.3, -999.0
20-03-2022, 00:31:49,     89,    0.0,    5.1,   0.00,   0.00, 1026.3,   56.3, -999.0
20-03-2022, 00:31:59,     89,    0.0,    5.1,   0.00,   0.00, 1026.4,   56.4, -999.0
20-03-2022, 00:32:09,     55,    0.1,    5.2,   0.00,   0.00, 1026.4,   56.5, -999.0
20-03-2022, 00:32:19,     39,    1.4,    5.3,   0.00,   0.00, 1026.5,   56.4, -999.0
20-03-2022, 00:32:29,     57,    1.0,    5.2,   0.00,   0.00, 1026.5,   56.3, -999.0
20-03-2022, 00:32:39,     58,    0.0,    5.1,   0.00,   0.00, 1026.3,   55.9, -999.0
20-03-2022, 00:32:49,     80,    0.7,    5.1,   0.00,   0.00, 1026.4,   56.5, -999.0
20-03-2022, 00:32:59,     80,    0.0,    5.2,   0.00,   0.00, 1026.3,   56.3, -999.0
20-03-2022, 00:33:09,     79,    0.0,    5.2,   0.00,   0.00, 1026.3,   56.4, -999.0
20-03-2022, 00:33:19,     79,    0.0,    5.2,   0.00,   0.00, 1026.3,   56.3, -999.0
20-03-2022, 00:33:29,     80,    0.0,    5.2,   0.00,   0.00, 1026.3,   56.3, -999.0
20-03-2022, 00:33:39,     79,    0.1,    5.2,   0.00,   0.00, 1026.4,   56.3, -999.0
20-03-2022, 00:33:48,     80,    0.0,    5.1,   0.00,   0.00, 1026.3,   55.9, -999.0
20-03-2022, 00:33:58,     77,    0.0,    5.1,   0.00,   0.00, 1026.3,   56.0, -999.0
20-03-2022, 00:34:09,     78,    0.0,    5.2,   0.00,   0.00, 1026.3,   56.2, -999.0
20-03-2022, 00:34:18,     80,    0.0,    5.2,   0.00,   0.00, 1026.3,   56.2, -999.0
20-03-2022, 00:34:28,     98,    0.5,    5.3,   0.00,   0.00, 1026.4,   56.5, -999.0
20-03-2022, 00:34:38,     97,    0.0,    5.3,   0.00,   0.00, 1026.3,   56.2, -999.0
20-03-2022, 00:34:48,     97,    0.0,    5.3,   0.00,   0.00, 1026.2,   56.0, -999.0
20-03-2022, 00:34:58,     97,    0.0,    5.2,   0.00,   0.00, 1026.2,   55.9, -999.0
20-03-2022, 00:35:08,     97,    0.0,    5.2,   0.00,   0.00, 1026.3,   55.9, -999.0
20-03-2022, 00:35:18,     97,    0.0,    5.2,   0.00,   0.00, 1026.3,   55.9, -999.0
20-03-2022, 00:35:28,     97,    0.0,    5.2,   0.00,   0.00, 1026.2,   55.9, -999.0
20-03-2022, 00:35:38,     97,    0.0,    5.1,   0.00,   0.00, 1026.3,   55.9, -999.0
20-03-2022, 00:35:48,     97,    0.0,    5.1,   0.00,   0.00, 1026.3,   55.7, -999.0
20-03-2022, 00:35:58,     97,    0.0,    5.1,   0.00,   0.00, 1026.2,   55.9, -999.0
20-03-2022, 00:36:08,     97,    0.0,    5.1,   0.00,   0.00, 1026.3,   56.0, -999.0
20-03-2022, 00:36:18,     86,    0.0,    5.1,   0.00,   0.00, 1026.3,   56.0, -999.0
20-03-2022, 00:36:28,     85,    0.0,    5.1,   0.00,   0.00, 1026.3,   56.1, -999.0
20-03-2022, 00:36:38,     85,    0.0,    5.1,   0.00,   0.00, 1026.3,   56.0, -999.0
20-03-2022, 00:36:48,     86,    0.0,    5.1,   0.00,   0.00, 1026.2,   56.0, -999.0
20-03-2022, 00:36:57,     86,    0.0,    5.0,   0.00,   0.00, 1026.2,   56.0, -999.0
20-03-2022, 00:37:07,     86,    0.0,    5.1,   0.00,   0.00, 1026.2,   56.1, -999.0
20-03-2022, 00:37:18,     86,    0.0,    5.0,   0.00,   0.00, 1026.2,   56.1, -999.0
20-03-2022, 00:37:27,     86,    0.0,    5.1,   0.00,   0.00, 1026.2,   56.1, -999.0
20-03-2022, 00:37:37,     86,    0.0,    5.0,   0.00,   0.00, 1026.2,   56.1, -999.0
20-03-2022, 00:37:48,     86,    0.0,    5.0,   0.00,   0.00, 1026.2,   56.2, -999.0
20-03-2022, 00:37:57,     86,    0.0,    5.0,   0.00,   0.00, 1026.2,   56.2, -999.0
20-03-2022, 00:38:07,     86,    0.0,    5.0,   0.00,   0.00, 1026.2,   56.2, -999.0
20-03-2022, 00:38:17,     85,    0.0,    4.9,   0.00,   0.00, 1026.2,   56.2, -999.0
20-03-2022, 00:38:27,     86,    0.0,    4.9,   0.00,   0.00, 1026.2,   56.3, -999.0
20-03-2022, 00:38:37,     86,    0.0,    4.9,   0.00,   0.00, 1026.2,   56.4, -999.0
20-03-2022, 00:38:47,     86,    0.0,    4.9,   0.00,   0.00, 1026.2,   56.5, -999.0
20-03-2022, 00:38:57,     86,    0.0,    4.9,   0.00,   0.00, 1026.2,   56.4, -999.0
20-03-2022, 00:39:07,     86,    0.0,    5.0,   0.00,   0.00, 1026.2,   56.5, -999.0
20-03-2022, 00:39:17,     86,    0.0,    5.0,   0.00,   0.00, 1026.2,   56.6, -999.0
20-03-2022, 00:39:27,     91,    0.0,    5.0,   0.00,   0.00, 1026.2,   56.5, -999.0
20-03-2022, 00:39:37,     91,    0.0,    5.0,   0.00,   0.00, 1026.2,   56.6, -999.0
20-03-2022, 00:39:47,     91,    0.0,    5.0,   0.00,   0.00, 1026.2,   56.5, -999.0
20-03-2022, 00:39:57,     91,    0.0,    4.9,   0.00,   0.00, 1026.2,   56.5, -999.0
20-03-2022, 00:40:07,     91,    0.0,    4.9,   0.00,   0.00, 1026.2,   56.6, -999.0
20-03-2022, 00:40:17,     91,    0.0,    4.9,   0.00,   0.00, 1026.2,   56.6, -999.0
20-03-2022, 00:40:27,     91,    0.0,    4.8,   0.00,   0.00, 1026.2,   56.5, -999.0
20-03-2022, 00:40:36,     93,    0.0,    4.8,   0.00,   0.00, 1026.2,   56.6, -999.0
20-03-2022, 00:40:46,     91,    0.0,    4.9,   0.00,   0.00, 1026.2,   56.7, -999.0
20-03-2022, 00:40:57,     91,    0.0,    4.9,   0.00,   0.00, 1026.2,   56.7, -999.0
20-03-2022, 00:41:06,     91,    0.0,    4.8,   0.00,   0.00, 1026.2,   56.7, -999.0
20-03-2022, 00:41:16,     90,    0.0,    4.8,   0.00,   0.00, 1026.2,   56.7, -999.0
20-03-2022, 00:41:26,     91,    0.0,    4.9,   0.00,   0.00, 1026.2,   56.7, -999.0
20-03-2022, 00:41:36,     90,    0.0,    4.7,   0.00,   0.00, 1026.2,   56.8, -999.0
20-03-2022, 00:41:46,     90,    0.0,    4.6,   0.00,   0.00, 1026.2,   56.9, -999.0
20-03-2022, 00:41:56,     90,    0.0,    4.7,   0.00,   0.00, 1026.2,   57.0, -999.0
20-03-2022, 00:42:06,     90,    0.0,    4.7,   0.00,   0.00, 1026.2,   57.1, -999.0
20-03-2022, 00:42:16,     90,    0.0,    4.7,   0.00,   0.00, 1026.2,   57.0, -999.0
20-03-2022, 00:42:26,     90,    0.0,    4.7,   0.00,   0.00, 1026.2,   57.1, -999.0
20-03-2022, 00:42:36,     90,    0.0,    4.7,   0.00,   0.00, 1026.2,   57.2, -999.0
20-03-2022, 00:42:46,     90,    0.0,    4.7,   0.00,   0.00, 1026.2,   57.2, -999.0
20-03-2022, 00:42:56,     90,    0.0,    4.7,   0.00,   0.00, 1026.2,   57.1, -999.0
20-03-2022, 00:43:06,     90,    0.0,    4.7,   0.00,   0.00, 1026.2,   57.2, -999.0
20-03-2022, 00:43:15,     90,    0.0,    4.8,   0.00,   0.00, 1026.2,   57.3, -999.0
20-03-2022, 00:43:26,     90,    0.0,    4.8,   0.00,   0.00, 1026.2,   57.3, -999.0
20-03-2022, 00:43:36,     49,    0.1,    4.8,   0.00,   0.00, 1026.2,   57.4, -999.0
20-03-2022, 00:43:45,     54,    1.9,    4.8,   0.00,   0.00, 1026.3,   57.5, -999.0
20-03-2022, 00:43:55,     54,    0.1,    4.8,   0.00,   0.00, 1026.2,   57.4, -999.0
20-03-2022, 00:44:06,     53,    0.0,    4.8,   0.00,   0.00, 1026.2,   57.4, -999.0
20-03-2022, 00:44:15,     54,    0.0,    4.8,   0.00,   0.00, 1026.2,   57.5, -999.0
20-03-2022, 00:44:25,     54,    0.0,    4.8,   0.00,   0.00, 1026.2,   57.4, -999.0
20-03-2022, 00:44:36,     54,    0.0,    4.7,   0.00,   0.00, 1026.1,   57.3, -999.0
20-03-2022, 00:44:45,     54,    0.0,    4.7,   0.00,   0.00, 1026.1,   57.3, -999.0
20-03-2022, 00:44:55,     54,    0.0,    4.7,   0.00,   0.00, 1026.1,   57.4, -999.0
20-03-2022, 00:45:05,     54,    0.0,    4.7,   0.00,   0.00, 1026.1,   57.3, -999.0
20-03-2022, 00:45:15,     99,    0.1,    4.7,   0.00,   0.00, 1026.2,   57.5, -999.0
20-03-2022, 00:45:25,     99,    0.0,    4.7,   0.00,   0.00, 1026.1,   57.4, -999.0
20-03-2022, 00:45:35,    100,    0.0,    4.7,   0.00,   0.00, 1026.1,   57.3, -999.0
20-03-2022, 00:45:45,     99,    0.0,    4.7,   0.00,   0.00, 1026.1,   57.4, -999.0
20-03-2022, 00:45:55,    100,    0.0,    4.7,   0.00,   0.00, 1026.1,   57.3, -999.0
20-03-2022, 00:46:05,     99,    0.0,    4.7,   0.00,   0.00, 1026.1,   57.3, -999.0
20-03-2022, 00:46:15,    100,    0.0,    4.7,   0.00,   0.00, 1026.1,   57.2, -999.0
20-03-2022, 00:46:25,     99,    0.0,    4.7,   0.00,   0.00, 1026.2,   57.5, -999.0
20-03-2022, 00:46:35,     99,    0.0,    4.7,   0.00,   0.00, 1026.2,   57.5, -999.0
20-03-2022, 00:46:45,     90,    0.1,    4.8,   0.00,   0.00, 1026.2,   57.7, -999.0